THORAD DELTA 1 DEB, 14880

Orbit data source: Space-Track

THORAD DELTA 1 DEB, 14880 is space debris in SSO originally from a launch on Fri, 15 Nov 1974 UTC launched from the Air Force Western Test Range (AFWTR). Debris objects in space refer to the collection of defunct objects orbiting the Earth. Examples of debris include non-operational satellites, rocket bodies, and fragments generated from explosions, collisions, or faulty payload assembly.

Loading next visibility...
Identifier
14880, 1974-089ET
Orbit
SSO
Country
Flag of USUS
Related business
Manufacturer
Unknown
Mission
Spacecraft
Bus & Motor
Unknown
Mass
Unknown
Launch date (UTC)
1974-11-15 (51 years ago)
Launch vehicle
Unknown
Launch site
Air Force Western Test Range (AFWTR)
Object type
Payload
Rocket body
Debris
Shape & HBR
Unknown shape, 0.1 m
Radar Cross Section
Small (<0.1 m²)

Expand to show TLE details & history
Last TLE update: 12 hours ago

TLE from 12 hours ago
0 THORAD DELTA 1 DEB
1 14880U 74089ET  25351.79577622  .00000004  00000-0  35114-3 0  9991
2 14880 101.2066 297.9926 0154164   5.8196  22.7454 12.30531170987082
Epoch: 2025-12-17T19:05Z
TLE epoch observation values (Epoch: 2025-12-17T19:05:55.065Z)
Latitude
28.6943°
Longitude
-81.34213°
Altitude
1,437.853 km
Speed
7.196 km/s
True Right ascension
19h 27m 11s
True Declination
28° 33' 44"
Sunlit
Object was in daylight at epoch
Visualization orbit readout
Latitude
Unknown
Longitude
Unknown
Altitude
Unknown
Speed
Unknown
Apparent Right ascension
Unknown
Apparent Declination
Unknown
Sunlit
N/A
Visualization observer readout
Local Sidereal Time
05:24:20
Azimuth
Unknown
Elevation
Unknown
Doppler factor
Unknown
Orbital elements
Apogee altitude
1,666.68 km
Perigee altitude
1,422.401 km
Semi-major axis
7,922.678 km
Eccentricity
0.01542
Inclination
101.2066°
RAAN
297.9926°
Arg. of periapsis
5.8196°
True anomaly
23.44076°
Mean anomaly
22.7454°
Eccentric anomaly
23.09183°
Mean motion
3.07776 °/min
Orbital period
116.97 mins
BSTAR
0.00035114
Loading maneuver chart data...
Computing Atmospheric mass density...
Loading historical data...
Loading historical data...
Loading historical data...
Loading historical data...
Loading historical data...
Loading historical data...
Loading historical data...

Documentation

Showing up to 5 results
|